Погода в Казинке

Россия / Белгородская область     50°14′13″N   37°50′26″E
темп.,
°C
ветер,
м/с
пор.,
м/с
влажн.,
%
обл.,
%
осадки,
мм/ч
давл.,
гПа
погр.,
м
8 марта, пн
пн800:00−1зюз91588100 0.1 10091006
03:00−1зюз8138999 0.3 1009930
06:00−1зюз81488100 0.6 1008725
09:000зюз8128097 0.6 1007755
12:00+1зюз7118799 0.2 1008833
15:00+2з71075100 0.6 10081001
18:00−1сз4894100 2.6 1009560
21:00−3з239096 2.7 101073
9 марта, вт
вт900:00−4сз239374 0.1 101178
03:00−4з359087 0.2 1011160
06:00−4зсз359690 0.1 1012207
09:00−4сз588394 0.4 1013637
12:00−3сз567394 0.1 10151010
15:00−3ссз676597 0.1 10171225
18:00−5ссз5778100 0.1 1018852
21:00−7ссз577595 0.1 1021811
10 марта, ср
ср1000:00−8ссз477410 0.0 1023743
03:00−9сз368111 0.0 1024659
06:00−9сз268764 0.0 1026435
09:00−9ссз467542 0.0 1027656
12:00−7ссз45600 0.0 1027823
15:00−5ссз44510 0.0 1028928
18:00−6ссз246142 0.0 1027589
21:00−8св247126 0.0 1028175
11 марта, чт
чт1100:00−9всв348038 0.0 1029357
03:00−10всв457665 0.0 1030400
06:00−12всв466983 0.0 1031410
09:00−12в456347 0.0 1032432
12:00−9в45410 0.0 1033756
15:00−8в343816 0.0 10321029
18:00−8в344424 0.0 1031885
21:00−10в355512 0.0 1032461
12 марта, пт
пт1200:00−11вюв36600 0.0 1033469
03:00−11вюв36650 0.0 1033345
06:00−12вюв35700 0.0 1033236
09:00−11юв46570 0.0 1034427
12:00−7ююв46400 0.0 1033730
15:00−5ююв563233 0.0 1032985
18:00−5ююв4837100 0.0 1031733
21:00−7ююв5113999 0.0 1031511